Location: Newark
(15.4608°S, 41.1635°W)
Time: 10:29:36
(UTC+00:00)

Vanguard 3 - Pass Details

Date: 03 August 2021
Orbit: 510 x 3260 km, 33.3° (Epoch: 22 September)

Event Time Altitude Azimuth Distance (km) Brightness Sun altitude
Rises 17:28:01 0° 286° (WNW) 3,654 11.3 39.3°
Reaches altitude 10° 17:32:44 10° 318° (NW) 3,247 11.5 38.4°
Maximum altitude 17:35:21 12° 337° (NNW) 3,420 11.3 37.9°
Drops below altitude 10° 17:38:24 10° 355° (N) 3,899 11.3 37.3°
Sets 17:46:08 0° 23° (NNE) 5,712 11.6 35.8°
